User: anonymous   Login
Location: Peebles
(55.6412°N, 3.1714°W)
Time: 08:01:53
(UTC+00:00)
Language:

Cosmos 1607 - Orbit

View from above orbital plane
View from above orbital plane
View from above satellite
View from above satellite

Ground track
Ground track

The orbit data is extracted from the following two-line orbital elements,

1 15378U 84112A   21336.84370668 -.00000070  00000-0  16650-4 0  9997
2 15378  64.9937  31.7129 0045372 197.7948 162.1525 13.83574674875676
Epoch (UTC): 02 December 2021 20:14:56
Eccentricity: 0.0045372
inclination: 64.9937°
perigee height: 918 km
apogee height: 984 km
right ascension of ascending node: 31.7129°
argument of perigee: 197.7948°
revolutions per day: 13.83574674
mean anomaly at epoch: 162.1525°
orbit number at epoch: 87567

The dashed part of the orbit path shows where the satellite is in the earth's shadow,  

DLR